Probability
0 0 0 0 0 0 0 0 0 0 0 0 0 0 0 0 0 0 0 0 0 0 0 0 0 0 0 0 0 0 0 0 0 0 0 0 0 0 0 0 0 0 0 0
0 0 0 0 0 0 0 0 0 0 0 0 0 0 0 0 0 0 0 0 0 0 0 0 0 0 0 0 0 0 0 0 0 0 0 0 0 0 0 0 0 0 0 0
0 0 0 0 0 0 0 0 0 0 0 0 0 0 0 0 0 0 0 0 0 0 0 0 0 0 0 0 0 0 0 0 0 0 0 0 0 0 0 0 0 0 0 0
0 0 0 0 0 0 0 0 0 0 0 0 0 0 0 0 0 0 0 0 0 0 0 0 0 0 0 0 0 0 0 0 0 1 1 1 0 0 0 0 0 0 0 0
0 0 0 0 0 0 0 0 0 0 0 0 0 0 0 0 0 0 0 0 0 0 0 0 0 0 0 0 0 0 0 0 1 2 2 1 0 0 0 0 0 0 0 0
0 0 0 0 0 0 0 0 0 0 0 0 0 0 0 0 0 0 0 0 0 0 0 0 0 0 0 0 0 0 0 0 1 2 2 1 0 0 0 0 0 0 0 0
0 0 0 0 0 0 0 0 0 0 0 0 0 0 0 0 0 0 0 0 0 0 0 0 0 0 0 0 0 0 0 0 1 1 1 0 0 0 0 0 0 0 0 0
0 0 0 0 0 0 0 0 0 0 0 0 0 0 0 0 0 0 0 0 0 0 0 0 0 0 0 0 0 0 0 0 0 0 0 0 0 0 0 0 0 0 0 0
0 0 0 0 0 0 0 0 0 0 0 0 0 0 0 0 0 0 0 0 0 0 0 0 0 0 0 0 0 0 0 0 0 0 0 0 0 0 0 0 0 0 0 0
0 0 0 0 0 0 0 0 0 0 0 0 0 0 0 0 0 0 0 0 0 0 0 0 0 0 0 0 0 0 0 0 0 0 0 0 0 0 0 0 0 0 0 0
0 0 0 0 0 0 0 0 0 0 0 0 0 0 0 0 0 0 0 0 0 0 0 0 0 0 0 0 0 0 0 0 0 0 0 0 0 0 0 0 0 0 0 0
0 0 0 0 0 0 0 0 0 0 0 0 0 0 0 0 0 0 0 0 0 0 0 0 0 0 0 0 0 0 0 0 0 0 0 0 0 0 0 0 0 0 0 0
0 0 0 0 0 0 0 0 0 0 0 0 0 0 0 0 0 0 0 0 0 0 0 0 0 0 0 0 0 0 0 0 0 0 0 0 0 0 0 0 0 0 0 0
0 0 0 0 0 0 0 0 0 0 0 0 0 0 0 0 0 0 0 0 0 0 0 0 0 0 0 0 0 0 0 0 0 0 0 0 0 0 0 0 0 0 0 0
0 0 0 0 0 0 0 0 0 0 0 0 0 0 0 0 0 0 0 0 0 0 0 0 0 0 0 0 0 0 0 0 0 0 0 0 0 0 0 0 0 0 0 0
0 0 0 0 0 0 0 0 0 0 0 0 0 0 0 0 0 0 0 0 0 0 0 0 0 0 0 0 0 0 0 0 0 0 0 0 0 0 0 0 0 0 0 0
0 0 0 0 0 0 0 0 0 0 0 0 0 0 0 0 0 0 0 0 0 0 0 0 0 0 0 0 0 0 0 0 0 0 0 0 0 0 0 0 0 0 0 0
0 0 0 0 0 0 0 0 0 0 0 0 0 0 0 0 0 0 0 0 0 0 0 0 0 0 0 0 0 0 0 0 0 0 0 0 0 0 0 0 0 0 0 0
0 0 0 0 0 0 0 0 0 0 0 0 0 0 0 0 0 0 0 0 0 0 0 0 0 0 0 0 0 0 0 0 0 0 0 0 0 0 0 0 0 0 0 0
0 0 0 0 0 0 0 0 0 0 0 0 0 0 0 0 0 0 0 0 0 0 0 0 0 0 0 0 0 0 0 0 0 0 0 0 0 0 0 0 0 0 0 0
0 0 0 0 0 0 0 0 0 0 0 0 0 0 0 0 0 0 0 0 0 0 0 0 0 0 0 0 0 0 0 0 0 0 0 0 0 0 0 0 0 0 0 0
0 0 0 0 0 0 0 0 0 0 0 0 0 0 0 0 0 0 0 0 0 0 0 0 0 0 0 0 0 0 0 0 0 0 0 0 0 0 0 0 0 0 0 0
0 0 0 0 0 0 0 0 0 0 0 0 0 0 0 0 0 0 0 0 0 0 0 0 0 0 0 0 0 0 0 0 0 0 0 0 0 0 0 0 0 0 0 0
0 0 0 0 0 0 0 0 0 0 0 0 0 0 0 0 0 0 0 0 0 0 0 0 0 0 0 0 0 0 0 0 0 0 0 0 0 0 0 0 0 0 0 0
0 0 0 0 0 0 0 0 0 0 0 0 0 0 0 0 0 0 0 0 0 0 0 0 0 0 0 0 0 0 0 0 0 0 0 0 0 0 0 0 0 0 0 0
0 0 0 0 0 0 0 0 0 0 0 0 0 0 0 0 0 0 0 0 0 0 0 0 0 0 0 0 0 0 0 0 0 0 0 0 0 0 0 0 0 0 0 0
0 0 0 0 0 0 0 0 0 0 0 0 0 0 0 0 0 0 0 0 0 0 0 0 0 0 0 0 0 0 0 0 0 0 0 0 0 0 0 0 0 0 0 0
Wind_Speed
4 4 2 3 4 3 5 6 7 7 7 10 7 6 4 2 1 1 1 1 2 2 2 2 2 2 1 1 1 0 1 1 2 2 1 1 1 1 1 1 1 1 1 1
2 2 2 4 5 5 5 5 6 5 8 7 5 2 2 2 2 2 2 2 2 2 2 2 2 2 2 2 1 1 1 1 1 1 1 1 1 1 1 1 1 1 1 1
3 3 2 5 6 6 4 4 5 7 8 4 2 3 3 3 3 3 3 2 2 3 3 3 2 2 2 2 1 1 1 1 1 1 1 1 1 1 1 1 1 1 2 2
1 1 5 7 3 4 4 4 5 5 5 4 4 3 2 2 3 3 3 2 2 2 2 2 1 1 1 0 1 1 1 1 1 1 1 1 1 2 2 2 2 2 2 2
2 2 7 7 3 3 4 4 2 3 3 3 2 2 3 2 2 4 3 2 2 2 1 1 1 1 0 0 0 0 1 1 1 1 1 2 2 2 2 2 2 2 2 3
3 3 6 6 3 1 2 3 3 1 1 0 3 1 5 3 2 1 1 0 1 0 0 0 1 0 1 0 0 1 2 2 1 1 1 2 3 2 2 2 2 2 2 2
4 4 8 6 4 2 2 6 3 2 2 2 3 5 4 2 1 1 1 0 0 1 0 1 1 1 1 0 2 3 2 1 1 1 2 2 2 1 1 1 1 2 2 2
3 3 8 3 2 3 5 3 2 2 3 3 3 3 2 1 1 0 0 0 0 1 1 1 0 1 0 1 3 2 1 1 1 1 2 1 1 1 1 1 1 2 2 2
7 7 4 1 3 3 2 2 3 3 3 2 2 3 2 1 1 1 1 1 0 1 0 1 1 1 1 2 2 1 1 2 2 2 1 1 1 1 1 1 1 1 1 2
4 6 5 4 3 3 2 3 3 3 3 3 3 3 2 2 2 2 1 1 1 1 0 1 1 1 1 2 1 1 1 1 1 1 2 2 2 1 1 1 1 1 1 2
5 6 5 5 4 4 3 3 3 3 3 4 3 3 3 3 3 2 2 1 1 2 2 2 2 2 2 1 0 0 1 1 1 1 1 1 2 1 2 2 2 2 2 2
7 6 5 6 5 4 4 5 4 3 3 3 3 4 3 2 2 2 2 1 1 2 2 2 1 1 2 1 0 1 1 1 1 1 1 1 1 2 3 3 5 4 4 3
8 5 5 6 5 4 5 5 4 4 4 3 2 2 2 2 2 1 1 1 2 2 2 2 1 1 2 2 1 1 2 2 1 1 1 1 1 1 3 4 5 5 6 6
6 4 5 5 6 5 5 4 3 2 3 3 2 1 1 1 1 2 2 2 1 1 1 1 1 2 2 1 1 1 1 2 1 1 1 1 1 2 2 2 3 4 5 6
6 6 6 6 5 4 3 1 1 2 2 1 1 1 2 2 2 2 2 1 1 1 1 1 1 3 2 1 1 1 1 1 1 1 1 1 2 2 2 2 3 3 3 4
4 4 4 4 5 4 3 3 3 3 2 2 2 2 2 2 2 1 1 1 1 2 2 2 2 3 2 1 1 1 2 3 2 1 1 1 2 2 2 3 3 3 3 4
3 4 4 5 5 5 5 4 4 4 3 3 3 2 2 2 1 1 1 1 2 2 2 2 3 2 2 1 1 1 1 2 3 2 1 2 2 2 3 3 3 3 4 4
6 6 6 6 5 5 4 3 3 3 4 3 2 2 3 2 2 2 2 1 1 1 2 3 3 2 2 2 1 1 1 2 2 2 2 2 2 2 3 3 4 4 4 4
4 4 4 4 4 4 3 3 3 3 2 3 3 3 3 2 2 2 1 1 1 2 3 3 4 2 2 3 2 1 1 2 2 2 2 3 3 2 3 3 4 4 4 4
3 3 2 2 2 2 2 2 2 1 2 3 3 3 2 2 2 1 1 2 3 3 3 3 2 2 2 3 3 1 1 2 2 2 2 2 3 3 3 3 4 4 4 4
3 3 2 2 2 1 1 1 2 2 2 3 4 3 3 2 1 1 1 2 3 2 2 3 2 2 2 3 2 1 2 2 2 3 3 3 3 4 4 4 4 4 4 4
2 2 2 1 1 1 1 1 1 2 2 2 2 2 2 1 1 1 2 2 3 3 2 1 1 3 4 3 1 1 2 2 2 2 3 3 3 4 4 4 4 4 4 3
2 1 1 1 0 1 1 1 1 2 2 2 2 2 2 2 1 1 2 2 2 3 2 2 3 5 5 2 1 2 2 3 3 3 3 3 3 4 4 5 4 4 4 4
2 2 1 1 1 1 1 1 1 0 1 1 1 1 1 0 1 1 2 2 3 3 2 3 5 5 4 2 1 2 2 3 3 3 3 3 3 3 4 4 4 4 4 5
2 2 1 1 1 1 1 1 1 1 1 1 1 1 0 1 1 1 1 1 2 2 2 3 4 4 2 1 2 2 2 3 3 3 3 3 3 3 3 3 4 4 4 4
2 2 2 2 2 2 1 1 0 0 0 0 1 1 1 1 0 0 1 1 2 2 2 2 2 2 2 2 2 3 3 3 4 3 3 3 4 3 3 4 5 4 4 4
2 1 1 1 1 1 1 1 2 1 1 1 1 1 1 1 1 1 1 1 1 2 2 2 2 2 2 2 2 3 3 3 3 3 3 3 3 3 4 4 4 4 4 4
Wind_Direction
236 244 222 235 240 206 200 203 207 233 238 259 263 260 258 251 238 213 204 218 231 242 249 261 277 275 257 256 259 206 155 185 225 237 242 228 201 221 243 257 270 265 286 280
272 266 245 262 261 238 234 225 223 248 263 262 272 262 248 217 205 217 238 237 244 257 262 258 255 260 250 241 244 179 169 251 279 272 255 223 208 199 218 271 282 266 260 269
264 292 344 279 247 218 210 214 198 223 247 272 279 245 229 216 203 215 230 235 237 241 243 250 255 246 230 223 206 169 182 266 303 291 279 255 225 196 215 246 261 274 279 269
235 33 245 248 250 204 203 242 227 242 264 257 249 252 247 215 203 220 229 234 241 243 256 259 257 269 249 213 168 173 195 268 291 294 270 277 243 231 237 232 234 250 268 271
140 221 274 291 274 187 193 265 247 237 284 322 357 43 328 281 227 221 220 233 235 229 228 239 276 298 71 87 144 172 258 279 282 265 253 257 252 253 248 240 250 251 253 261
143 199 247 259 283 260 132 283 277 195 234 352 75 44 274 268 240 233 255 240 245 310 48 332 300 34 92 26 348 272 264 266 280 273 247 251 246 248 259 241 248 255 271 272
180 223 261 266 292 86 151 256 283 211 213 189 199 225 258 262 250 209 219 237 109 87 57 275 291 112 110 326 280 272 273 284 303 296 270 262 265 257 253 260 265 267 273 283
162 206 257 279 108 167 223 258 266 242 229 223 251 288 297 246 196 173 276 248 134 98 312 306 318 135 151 270 279 297 313 305 299 302 309 336 312 299 279 270 271 274 275 290
193 215 242 234 217 250 226 250 259 253 257 222 257 285 292 270 223 223 219 236 243 167 249 323 318 164 219 276 301 353 2 333 322 334 343 344 332 317 314 306 277 280 277 279
252 267 271 273 276 283 254 254 264 256 242 212 228 248 259 253 248 241 233 235 237 181 190 293 295 280 255 285 322 36 348 324 325 343 339 338 333 316 310 296 288 288 280 280
257 275 298 287 267 272 286 290 287 279 246 220 216 235 231 228 233 233 240 240 206 197 214 250 275 296 311 312 287 252 266 283 296 304 308 320 317 307 299 283 278 275 266 259
240 240 228 261 269 267 273 272 262 263 273 254 219 222 226 231 229 216 224 234 234 225 221 239 255 289 307 301 236 208 267 277 272 287 296 299 310 324 327 315 323 316 302 287
242 251 238 263 277 265 257 263 259 241 235 248 248 214 194 218 219 204 214 218 217 224 224 229 242 281 293 294 269 236 253 267 265 267 279 296 301 306 316 329 336 330 324 311
250 254 266 264 267 272 263 264 263 262 253 235 226 204 179 199 205 206 223 230 218 217 232 231 247 279 291 291 298 291 283 277 277 257 261 270 278 286 293 304 316 319 324 320
252 235 244 268 280 283 276 259 258 269 269 271 226 178 176 186 206 225 237 213 147 193 253 252 269 286 298 306 307 292 287 280 271 266 271 271 278 281 284 287 289 296 304 312
268 267 262 266 269 270 265 241 233 248 249 243 226 213 204 195 196 209 201 164 170 224 248 253 271 283 290 293 294 288 278 285 294 277 283 287 284 282 284 283 283 283 285 288
250 268 265 268 265 264 254 239 227 226 222 218 220 204 155 132 132 238 250 232 221 231 237 241 262 279 277 264 264 269 270 279 293 303 279 268 267 269 274 277 281 281 279 281
236 242 245 245 248 255 258 247 233 222 221 220 196 161 152 165 200 233 251 256 278 291 272 263 269 282 284 283 275 265 262 262 264 271 278 275 278 274 275 275 278 282 286 291
273 266 266 257 243 230 236 243 241 230 215 183 173 181 189 200 214 229 222 198 232 269 278 273 280 285 275 279 298 266 268 270 270 270 272 283 289 282 277 276 277 278 281 284
309 299 295 293 276 229 229 239 233 219 208 177 165 166 182 213 214 213 211 233 244 254 263 277 277 269 269 270 290 264 256 259 261 268 273 274 274 275 276 280 281 280 280 279
322 327 337 331 317 296 238 198 179 192 191 166 168 182 196 213 209 188 191 271 286 285 278 285 290 277 274 281 286 264 257 259 260 259 264 269 273 275 276 278 280 279 280 282
319 325 325 327 344 318 300 227 173 168 158 157 167 164 159 181 223 255 246 245 266 292 299 277 277 286 296 299 279 268 275 274 272 268 267 270 274 276 277 277 275 277 279 277
297 298 306 308 282 304 341 354 150 151 150 163 174 175 188 212 207 205 269 276 270 290 303 279 292 303 314 325 294 280 282 280 276 275 273 275 275 277 279 280 279 278 278 276
291 301 303 315 82 72 346 319 345 112 135 152 168 170 168 180 310 282 259 278 301 310 302 297 306 316 332 340 309 293 284 282 279 278 278 280 281 282 282 285 286 286 283 281
262 269 267 207 187 229 250 317 25 39 57 49 27 12 354 185 223 272 293 282 301 321 310 304 314 320 328 317 302 293 287 283 285 286 283 286 285 284 285 288 291 290 288 285
246 246 241 234 230 223 205 185 201 235 129 62 346 339 344 350 6 307 310 299 296 314 315 306 306 309 306 301 298 296 294 297 301 298 290 289 290 291 292 292 294 292 290 287
252 245 252 295 281 230 207 198 197 210 204 198 251 288 303 327 334 322 322 316 312 310 307 304 302 298 294 297 299 298 297 295 293 294 294 292 293 292 292 292 291 291 291 290